[[{"header":{"parameterUnit":"m.s-1","parameterCategory":1,"la1":30.2991,"la2":30.254,"lo1":-89.0895,"lo2":-89.0444,"dy":0.0017,"dx":0.0017,"nx":28,"ny":28,"refTime":"2024-07-28T09:00:00:Z","depth":0,"parameterNumber":2,"parameterNumberName":"U-component_of_WINDS"},"data":[0,0,0,0,0,0,0,0,0,0,0,0,0,0,0,0,0,0,0,0,0,0,0,0,0,0,0,0,0,0,0,0,0,0,0,0,0,0,0,0,0,0,0,0,0,0,0,0,0,0,0,0,0,0,0,0,0,0,2.1091,2.1092,0,2.1188,2.1189,2.119,2.1233,2.1233,2.1233,2.1232,2.1331,2.1334,2.1336,0,0,0,0,0,0,0,0,0,0,0,0,0,2.0943,2.0945,2.1091,2.1093,2.1094,2.1188,2.1189,2.1191,2.1233,2.1233,2.1233,2.1232,2.133,2.1333,2.1336,0,0,0,0,0,0,0,0,0,0,0,0,0,2.102,2.0946,2.1091,2.1126,2.113,2.1188,2.1189,2.1191,2.1233,2.1233,2.1233,2.1232,2.1329,2.1333,2.1337,2.1366,0,0,2.135,2.1351,0,0,0,0,0,0,0,0,2.1016,2.1026,2.112,2.1124,2.1129,2.1198,2.1173,2.125,2.1233,2.1194,2.1232,2.1232,2.1287,2.1294,2.1313,2.1371,2.1375,2.135,2.1352,2.1354,2.1355,0,0,0,0,0,0,0,2.101,2.1022,2.113,2.1121,2.1127,2.1137,2.1148,2.1188,2.124,2.1197,2.1201,2.1212,2.1289,2.1309,2.1316,2.1377,2.135,2.1353,2.1356,2.1358,2.1464,2.1465,0,0,0,0,0,0,2.0999,2.1017,2.1127,2.1133,2.1071,2.114,2.1152,2.1176,2.124,2.125,2.1212,2.1213,2.1302,2.1311,2.1319,2.1358,2.1354,2.1358,2.136,2.1464,2.1464,2.1465,0,0,0,0,0,0,2.0996,2.1009,2.1123,2.1076,2.1091,2.1143,2.1169,2.1178,2.1198,2.1251,2.126,2.1222,2.1302,2.1313,2.1355,2.1362,2.136,2.1364,2.1464,2.1464,2.1465,2.1437,0,0,0,0,0,0,2.0992,2.1007,2.1019,2.1076,2.1093,2.1156,2.117,2.118,2.1205,2.1208,2.1263,2.1272,2.1303,2.1348,2.1359,2.1368,2.1367,2.1463,2.1464,2.1464,2.1437,2.1436,2.1435,0,0,0,0,0,2.0986,2.1007,2.1019,2.1032,2.1109,2.1157,2.1167,2.1202,2.1205,2.1218,2.1252,2.127,2.136,2.1352,2.1364,2.1375,2.1463,2.1464,2.1464,2.1437,2.1436,2.1435,0,0,0,0,0,0,2.095,2.1015,2.103,2.1069,2.1107,2.1164,2.118,2.1199,2.1237,2.1238,2.128,2.1292,2.1329,2.1356,2.1347,2.1407,2.1413,2.1416,2.1388,2.1388,2.1387,2.1379,2.137,0,0,0,0,0,2.0946,2.0979,2.1035,2.1065,2.1083,2.1128,2.115,2.1174,2.1215,2.1231,2.1268,2.1307,2.1344,2.1367,2.1404,2.1441,2.1454,2.1454,2.1454,2.1453,2.1455,2.1477,2.1478,2.1468,2.1468,2.1468,0,0,2.0939,2.0979,2.0998,2.1058,2.109,2.1124,2.1141,2.1176,2.1201,2.1236,2.1278,2.1306,2.1352,2.1391,2.141,2.1415,2.1461,2.1454,2.1452,2.1456,2.1478,2.1479,2.148,2.1468,2.1468,2.1468,0,0,2.0944,2.0978,2.1007,2.1039,2.1087,2.1117,2.1124,2.1178,2.1198,2.1241,2.1268,2.1298,2.1361,2.1393,2.1417,2.1434,2.1453,2.1445,2.144,2.1461,2.1462,2.1463,2.147,2.1472,2.1447,2.1447,2.1447,0,2.093,2.0982,2.1019,2.1052,2.1078,2.1112,2.1141,2.117,2.1228,2.1245,2.1249,2.1329,2.1362,2.141,2.1414,2.1432,2.1442,2.1439,2.1459,2.1461,2.1462,2.1469,2.1471,2.1446,2.1446,2.1446,2.1446,0,2.0962,2.0997,2.1014,2.107,2.1098,2.1129,2.1171,2.1195,2.1216,2.1246,2.1288,2.1329,2.1375,2.1388,2.1409,2.1439,2.144,2.1451,2.1458,2.1461,2.1468,2.1471,2.1444,2.1444,2.1445,2.1445,0,0,2.0946,2.1022,2.1028,2.1054,2.111,2.1138,2.1171,2.1216,2.1236,2.1275,2.1303,2.1356,2.1366,2.1394,2.1419,2.1437,2.1449,2.1446,2.1448,2.1445,2.1484,2.1476,2.1478,2.1461,2.1462,2.1463,2.1481,0,2.0959,2.102,2.1054,2.11,2.1134,2.1166,2.1195,2.1232,2.1261,2.1293,2.1325,2.1361,2.1372,2.1389,2.1409,2.1443,2.1457,2.1442,2.1489,2.149,2.1476,2.1482,2.1473,2.1488,2.1483,2.1484,2.1484,0,2.0982,2.1021,2.107,2.1123,2.1139,2.1164,2.1208,2.1239,2.1282,2.1301,2.1332,2.1357,2.1393,2.1397,2.1447,2.1436,2.1457,2.1477,2.1478,2.1484,2.1487,2.1488,2.1494,2.1496,2.1489,2.1489,2.1488,0,2.0966,2.1031,2.1069,2.109,2.1152,2.1169,2.1196,2.1239,2.1264,2.1303,2.132,2.1362,2.1385,2.1417,2.1453,2.1453,2.15,2.1506,2.1517,2.1516,2.1526,2.1525,2.1535,2.1539,2.1539,2.1539,2.1539,0,2.0977,2.1006,2.1063,2.1086,2.112,2.1159,2.1191,2.1221,2.1259,2.1289,2.1319,2.1346,2.1392,2.1424,2.1453,2.149,2.15,2.1517,2.1524,2.1515,2.1512,2.1529,2.1529,2.1539,2.1539,2.1539,2.1539,0,2.0965,2.1004,2.1048,2.1104,2.1118,2.1141,2.1188,2.1212,2.1243,2.128,2.1291,2.1338,2.1379,2.1417,2.1471,2.149,2.1528,2.1537,2.1513,2.1517,2.1526,2.1524,2.1547,2.1552,2.1552,2.1552,2.1552,0,2.097,2.0993,2.1052,2.1074,2.11,2.1135,2.1161,2.1201,2.1227,2.1278,2.1296,2.1338,2.1375,2.1437,2.1477,2.1518,2.1529,2.1534,2.1535,2.1525,2.1529,2.1527,2.153,2.1533,2.1533,2.1532,2.1532,0,2.0974,2.0992,2.1029,2.1072,2.1102,2.1138,2.1175,2.1191,2.1238,2.1265,2.1307,2.1335,2.139,2.1432,2.1478,2.1506,2.1527,2.1532,2.1536,2.1527,2.1512,2.1521,2.1511,2.1531,2.1531,2.1531,2.1531,2.1531,2.0971,2.0993,2.1038,2.1078,2.111,2.1143,2.1169,2.1202,2.1238,2.1286,2.1307,2.1349,2.1392,2.1456,2.1484,2.1517,2.1522,2.1529,2.1531,2.1532,2.153,2.1506,2.1526,2.1526,2.1526,2.1526,2.1526,0,2.0977,2.1007,2.1043,2.1094,2.1125,2.1143,2.1184,2.1209,2.1246,2.1284,2.132,2.1368,2.1409,2.1451,2.1494,2.1513,2.1524,2.1523,2.1522,2.1528,2.1523,2.1515,2.1514,2.1514,2.1514,2.1514,2.1514,2.1514,2.0984,2.1023,2.1046,2.1101,2.1131,2.1173,2.1195,2.1227,2.1258,2.131,2.1344,2.1372,2.1412,2.1459,2.1497,2.1508,2.1523,2.152,2.1534,2.1528,2.1529,2.1529,2.1522,2.1522,2.1522,2.1537,2.1537,2.1537]},{"header":{"parameterUnit":"m.s-1","parameterCategory":1,"la1":30.2991,"la2":30.254,"lo1":-89.0895,"lo2":-89.0444,"dy":0.0017,"dx":0.0017,"nx":28,"ny":28,"refTime":"2024-07-28T09:00:00:Z","depth":0,"parameterNumber":3,"parameterNumberName":"V-component_of_WINDS"},"data":[0,0,0,0,0,0,0,0,0,0,0,0,0,0,0,0,0,0,0,0,0,0,0,0,0,0,0,0,0,0,0,0,0,0,0,0,0,0,0,0,0,0,0,0,0,0,0,0,0,0,0,0,0,0,0,0,0,0,0.9864,0.9864,0,0.9819,0.9818,0.9818,0.9813,0.9813,0.9814,0.9814,0.9767,0.9766,0.9764,0,0,0,0,0,0,0,0,0,0,0,0,0,0.9947,0.9946,0.9864,0.9864,0.9863,0.9819,0.9818,0.9818,0.9813,0.9813,0.9814,0.9815,0.9768,0.9766,0.9764,0,0,0,0,0,0,0,0,0,0,0,0,0,0.9907,0.9945,0.9864,0.9855,0.9854,0.9819,0.9818,0.9817,0.9813,0.9813,0.9814,0.9815,0.9769,0.9766,0.9764,0.9734,0,0,0.9756,0.9755,0,0,0,0,0,0,0,0,0.991,0.9904,0.9857,0.9856,0.9855,0.9822,0.983,0.9789,0.9813,0.9828,0.9814,0.9815,0.9785,0.9781,0.9771,0.9732,0.973,0.9756,0.9754,0.9753,0.9752,0,0,0,0,0,0,0,0.9912,0.9906,0.9846,0.9857,0.9855,0.9854,0.9849,0.9822,0.9803,0.9827,0.9827,0.9821,0.9784,0.9774,0.977,0.9729,0.9756,0.9753,0.9752,0.9751,0.9664,0.9663,0,0,0,0,0,0,0.9917,0.9909,0.9848,0.9845,0.9884,0.9852,0.9846,0.9832,0.9804,0.98,0.9821,0.9821,0.9778,0.9773,0.9768,0.9732,0.9753,0.9751,0.9749,0.9665,0.9664,0.9663,0,0,0,0,0,0,0.9919,0.9911,0.985,0.9877,0.9869,0.985,0.9833,0.9831,0.982,0.9799,0.9795,0.9813,0.9778,0.9772,0.9743,0.973,0.975,0.9747,0.9666,0.9664,0.9663,0.9659,0,0,0,0,0,0,0.9921,0.9912,0.9901,0.9876,0.9867,0.9825,0.9833,0.9829,0.9815,0.9816,0.9791,0.9787,0.9778,0.9747,0.974,0.9727,0.9745,0.9667,0.9665,0.9664,0.966,0.9658,0.9656,0,0,0,0,0,0.9924,0.9901,0.99,0.9893,0.9852,0.9824,0.9819,0.9808,0.9815,0.9803,0.979,0.9788,0.9733,0.9744,0.9736,0.9722,0.9667,0.9665,0.9664,0.9661,0.9658,0.9656,0,0,0,0,0,0,0.9924,0.9898,0.9896,0.9865,0.9847,0.9823,0.9808,0.9806,0.9785,0.9786,0.9774,0.9769,0.974,0.9728,0.9741,0.9692,0.9701,0.9697,0.9701,0.9698,0.9696,0.9699,0.9743,0,0,0,0,0,0.992,0.9899,0.9878,0.9852,0.9843,0.9827,0.9814,0.9808,0.9789,0.9781,0.9765,0.9747,0.9725,0.9711,0.969,0.9659,0.9653,0.9645,0.9643,0.9642,0.9639,0.9621,0.9618,0.9657,0.9657,0.9657,0,0,0.9912,0.9895,0.9883,0.9851,0.9837,0.9815,0.9821,0.9798,0.9782,0.9777,0.9749,0.9737,0.9715,0.9685,0.9671,0.9674,0.9627,0.9639,0.9638,0.9636,0.9619,0.9615,0.9612,0.9656,0.9656,0.9656,0,0,0.9887,0.9872,0.9849,0.9834,0.9812,0.9802,0.9796,0.9773,0.9765,0.9737,0.9733,0.9714,0.9677,0.9662,0.9649,0.9619,0.9617,0.9613,0.9601,0.9584,0.9581,0.9578,0.9568,0.9564,0.961,0.961,0.961,0,0.988,0.9847,0.9838,0.9815,0.9801,0.9797,0.9773,0.976,0.9732,0.9722,0.9727,0.9681,0.9666,0.9632,0.9625,0.9615,0.9608,0.9615,0.9583,0.958,0.9577,0.9566,0.9562,0.961,0.961,0.961,0.961,0,0.984,0.9817,0.9801,0.9775,0.9759,0.9736,0.9723,0.9709,0.9704,0.9694,0.9665,0.9647,0.9623,0.9614,0.9609,0.958,0.9583,0.9585,0.9593,0.9573,0.9563,0.9559,0.9609,0.9609,0.9609,0.9609,0,0,0.9812,0.9781,0.9775,0.9763,0.9738,0.9721,0.9698,0.9674,0.9662,0.9643,0.9624,0.9593,0.9595,0.9581,0.9575,0.956,0.9538,0.9564,0.9564,0.956,0.9504,0.9502,0.9498,0.9537,0.9536,0.9535,0.9506,0,0.9783,0.9742,0.9733,0.9698,0.9677,0.9673,0.9654,0.9637,0.9626,0.9607,0.9596,0.9574,0.9579,0.9571,0.9556,0.9543,0.9526,0.9545,0.9518,0.9517,0.9523,0.9492,0.949,0.9463,0.9502,0.9501,0.9501,0,0.9744,0.9725,0.9687,0.9666,0.9657,0.9639,0.9617,0.9599,0.958,0.9574,0.9558,0.9554,0.953,0.954,0.9507,0.952,0.9509,0.9501,0.95,0.9496,0.9507,0.9488,0.9454,0.945,0.9494,0.9495,0.9495,0,0.9727,0.9692,0.9665,0.9655,0.9629,0.9617,0.9606,0.9588,0.9574,0.9555,0.9546,0.9524,0.9512,0.9495,0.9485,0.9493,0.9453,0.9462,0.9447,0.9448,0.9438,0.9439,0.9402,0.9432,0.9432,0.9432,0.9432,0,0.9696,0.9673,0.9657,0.964,0.9615,0.9605,0.958,0.9569,0.9553,0.9534,0.953,0.9513,0.95,0.9481,0.9473,0.9448,0.9442,0.9436,0.9434,0.9437,0.9437,0.9428,0.943,0.9431,0.9431,0.9431,0.9431,0,0.9672,0.966,0.9631,0.961,0.9604,0.9586,0.9568,0.9552,0.9542,0.9519,0.9513,0.9497,0.9475,0.9463,0.9435,0.9429,0.94,0.94,0.9407,0.9406,0.9392,0.9393,0.9347,0.9341,0.9375,0.9375,0.9375,0,0.9653,0.9635,0.9612,0.96,0.9588,0.9568,0.9554,0.9544,0.953,0.9507,0.9494,0.9472,0.9453,0.9417,0.9403,0.9382,0.9381,0.9366,0.9377,0.938,0.938,0.9381,0.938,0.9364,0.9364,0.9363,0.9363,0,0.9619,0.9614,0.9595,0.9574,0.9557,0.954,0.9523,0.9513,0.95,0.9485,0.9462,0.9447,0.9419,0.9397,0.9375,0.9363,0.9361,0.936,0.9355,0.9357,0.9362,0.9359,0.9401,0.9361,0.9361,0.9361,0.9361,0.9362,0.9597,0.9581,0.9563,0.9541,0.9527,0.9512,0.9496,0.9484,0.9465,0.9441,0.9437,0.9412,0.9394,0.9365,0.9353,0.9334,0.9337,0.933,0.9328,0.9327,0.9326,0.9365,0.933,0.933,0.933,0.933,0.933,0,0.9563,0.9551,0.9531,0.9508,0.9491,0.9491,0.9472,0.9458,0.9437,0.9421,0.9403,0.9377,0.9355,0.934,0.9319,0.9307,0.9305,0.9301,0.9302,0.9299,0.9325,0.9331,0.9303,0.9303,0.9303,0.9303,0.9303,0.9303,0.9543,0.9517,0.951,0.9477,0.9465,0.9442,0.9431,0.9417,0.9404,0.9375,0.9357,0.9348,0.9332,0.9309,0.929,0.9286,0.9278,0.9274,0.927,0.9294,0.9297,0.93,0.9306,0.9273,0.9273,0.9246,0.9246,0.9246]}]]